Location: Frankfurt+(oder)
(51.7984°N, 12.2168°E)
Time: 14:46:32
(UTC+02:00)

ISS - Pass Details

Date: 29 March 2017
Orbit: 399 x 409 km, 51.6° (Epoch: 30 March)

Event Time Altitude Azimuth Distance (km) Brightness Sun altitude
Rises 21:40:42 0° 238° (WSW) 2,309 0.4 -18.3°
Reaches altitude 10° 21:42:49 10° 232° (SW) 1,454 -0.8 -18.6°
Enters shadow 21:45:04 35° 203° (SSW) 667 -2.9 -18.9°
